Location: Coleto Creek Park and Reservoir
(28.7196°N, 97.1740°W)
Time: 11:40:12
(UTC-05:00)

Hubble Space Telescope - Visible Passes

Search period start: 20 April 2018 00:00
Search period end: 30 April 2018 00:00
Orbit: 537 x 541 km, 28.5° (Epoch: 20 April)

Date Brightness Start Highest point End Pass type
(mag) Time Alt. Az. Time Alt. Az. Time Alt. Az.
20 Apr 1.9 05:52:29 23° SW 05:53:28 26° SSW 05:56:56 10° SE visible
21 Apr 2.2 05:43:18 21° SSW 05:43:18 21° SSW 05:46:13 10° SSE visible
22 Apr 2.9 05:34:15 14° S 05:34:15 14° S 05:35:20 10° SSE visible
22 Apr 3.0 20:56:46 10° SSE 20:56:54 10° SSE 20:56:54 10° SSE visible
23 Apr 2.6 20:44:54 10° S 20:47:01 14° SSE 20:48:00 13° SE visible
24 Apr 2.4 20:33:49 10° SSW 20:36:38 18° SSE 20:39:00 12° ESE visible
24 Apr 3.1 22:13:27 10° WSW 22:14:24 16° WSW 22:14:24 16° WSW visible
25 Apr 2.2 20:23:00 10° SSW 20:26:14 22° SSE 20:29:29 10° ESE visible
25 Apr 2.2 22:03:04 10° WSW 22:05:16 29° WSW 22:05:16 29° WSW visible
26 Apr 1.2 21:52:43 10° WSW 21:56:00 52° SW 21:56:00 52° SW visible
27 Apr 0.6 21:42:24 10° WSW 21:46:32 77° S 21:46:35 77° SSE visible
28 Apr 0.6 21:32:06 10° W 21:36:14 83° S 21:37:05 55° E visible
29 Apr 0.7 21:21:48 10° W 21:25:57 87° S 21:27:28 38° E visible
